www.pogodaiklimat.ru
ПОГОДА в Омидийе
Время
(UTC), дата
03 5.12
06 5.12
09 5.12
12 5.12
15 5.12
18 5.12
21 5.12
00 6.12
03 6.12
06 6.12
09 6.12
12 6.12
15 6.12
18 6.12
21 6.12
00 7.12
03 7.12
06 7.12
09 7.12
12 7.12
15 7.12
18 7.12
21 7.12
00 8.12
03 8.12
06 8.12
09 8.12
12 8.12
15 8.12
18 8.12
21 8.12
00 9.12
03 9.12
06 9.12
09 9.12
12 9.12
15 9.12
18 9.12
21 9.12
00 10.12
03 10.12
06 10.12
09 10.12
12 10.12
15 10.12
18 10.12
21 10.12
00 11.12
03 11.12
06 11.12
09 11.12
12 11.12
15 11.12
18 11.12
21 11.12
00 12.12
Ветер
(напр.,м/с)
Видим. Явления Облачность Т
(С)
Тd
(С)
f
(%)
Тe
(С)
Тes
(С)
Комфортность P
(гПа)
Po
(гПа)
Тmin
(С)
Tmax
(С)
R
(мм)
R24
(мм)
S
(см)
З 1 500 м туман ясно +8.7 +8.5 99 +8 +8 1021.7 1018.4 +8.7 666
Ю 1 100 м туман ясно +11.2 +11.1 99 +11 +15 1022.4 1019.1
СЗ 3 2000 м мгла {туман} ясно +18.0 +14.0 77 +18 +25 1022.8 1019.6
СЗ 6 2000 м дымка 4/4 750 м
[St]
+18.1 +14.8 81 +18 +18 1020.4 1017.1
СЗ 4 1500 м дымка ясно +14.3 +12.6 90 +13 +13 1020.9 1017.6 +19.2 666
С 3 2500 м дымка ясно +11.9 +11.0 94 +10 +10 1021.3 1018.0
СЗ 2 2500 м дымка ясно +10.8 +10.3 97 +9 +9 1021.4 1018.1
штиль 0 3000 м дымка ясно +8.8 +8.6 99 +8 +8 1021.2 1017.9
штиль 0 2800 м дымка ясно +9.3 +8.9 97 +8 +8 1021.5 1018.2 +8.6 666
З 4 3200 м дымка ясно +15.2 +13.2 88 +14 +16 1022.1 1018.8
ЮВ 5 6000 м мгла 9/9 1050 м
[Cb calv]
+22.1 +13.2 57 +25 +25 комфорт 1020.9 1017.7
ЮЗ 5 7000 м мгла 9/9 1050 м
[Cb calv]
+22.1 +13.9 60 +25 +25 комфорт 1017.7 1014.5
З 2 6000 м мгла 9/9 1050 м
[Cb calv]
+19.1 +14.3 74 +21 +21 комфорт 1018.0 1014.7 +24.9 666
ЮВ 3 7000 м мгла 6/6 1200 м
[Sc]
+18.9 +13.3 70 +20 +20 1018.0 1014.8 0.6
В 5 6000 м слаб. ливневой дождь {гроза} 10/10 1050 м
[Cb calv]
+17.3 +12.7 74 +17 +17 1019.5 1016.3
СВ 5 6000 м гроза, ливневой дождь 10/8 900 м
[Cb cap As op]
+17.9 +11.6 67 +18 +18 1017.8 1014.6 5
СВ 4 7000 м мгла {гроза} 10/6 1050 м
[Cb calv As op]
+17.1 +12.8 76 +17 +17 1018.8 1015.6 +15.2
Ю 5 7000 м слаб. дождь 10/6 1050 м
[Cb calv As op]
+16.1 +12.4 79 +15 +15 1020.1 1016.9 8 13.8
В 11 10 км в посл. час дождь 10/6 1050 м
[Cb calv Ac As]
+18.1 +9.7 58 +17 +17 1017.1 1013.9 666
ЮВ 10 10 км в посл. час ливневой дождь {гроза} 10/6 1050 м
[Cb calv Ac As]
+18.4 +9.9 58 +18 +18 1016.1 1012.9 2
ЮВ 10 8000 м слаб. ливневой дождь 10/6 900 м
[Cb calv Ac As]
+16.4 +11.2 71 +15 +15 1016.4 1013.2 +18.6 666
ЮВ 9 7000 м слаб. дождь 10/6 900 м
[Cb calv As op]
+15.5 +11.8 79 +13 +13 1016.8 1013.6 5
Ю 2 10 км {гроза} 8/8 1050 м
[Cb calv]
+17.3 +11.1 67 +18 +18 1016.0 1012.8
Ю 6 8000 м гроза, ливневой дождь 10/10 900 м
[Cb cap]
+14.9 +12.3 84 +13 +13 1015.4 1012.2 1
В 2 8000 м дымка {гроза, ливн. осадки} 6/6 1050 м
[Cb calv]
+14.7 +12.2 85 +14 +14 1014.8 1011.6 +14.6 666
ЮЗ 2 8000 м дымка {гроза, ливн. осадки} 8/8 1050 м
[Cb calv]
+15.2 +13.1 87 +15 +16 1017.5 1014.3 1 8.9
С 4 2500 м дымка 8/8 1050 м
[Cb calv]
+17.1 +14.8 86 +17 +18 1017.9 1014.7
СЗ 6 6000 м мгла 8/8 1050 м
[Cb calv]
+17.6 +12.2 71 +17 +17 1016.8 1013.6
С 3 4000 м дымка 4/4 1200 м
[Sc diur, vesp]
+13.9 +12.2 89 +13 +13 1017.6 1014.4 +18.3 666
С 4 2500 м дымка 6/0
[Ac und]
+12.1 +10.8 92 +10 +10 1019.0 1015.8
СЗ 3 2000 м дымка ясно +10.4 +9.6 95 +8 +8 1019.0 1015.8
СВ 2 1500 м дымка 5/0
[Ac trans]
+10.1 +9.7 97 +8 +8 1019.0 1015.8
С 3 2000 м дымка ясно +8.0 +7.5 97 +5 +5 1019.4 1016.1 +8.0 666
СЗ 1 2500 м дымка 1/0
[Ci fib]
+13.2 +10.5 84 +13 +17 1021.5 1018.2
С 4 8000 м мгла 4/0
[Ci fib]
+17.7 +9.5 59 +17 +22 1021.0 1017.7
С 5 10 км 3/3 1200 м
[Sc diur, vesp]
+17.6 +9.6 59 +17 +18 1019.9 1016.6
С 3 8000 м дымка ясно +12.8 +10.2 84 +11 +11 1019.4 1016.1 +17.8 666
С 3 7000 м дымка ясно +10.2 +9.3 94 +8 +8 1019.8 1016.5
С 2 7000 м дымка 3/0
[Ci fib]
+9.0 +8.2 95 +7 +7 1019.5 1016.3
ЮВ 1 7000 м дымка 4/0
[Ci fib]
+8.3 +7.5 95 +7 +7 1019.4 1016.2
СЗ 2 7000 м дымка 4/0
[Ci fib]
+7.7 +7.0 95 +5 +5 1019.7 1016.4 +7.7 666
ЮЗ 1 8000 м дымка 5/3 1200 м
[Sc diur, vesp Ci fib]
+13.4 +10.2 81 +14 +16 1020.2 1016.9
Ю 1 8000 м мгла 8/0
[Ac trans Cs]
+20.6 +11.0 54 +24 +30 комфорт 1018.4 1015.2 666
С 4 10 км 9/6 1050 м
[Cb calv Ac As]
+19.0 +11.4 61 +20 +20 1016.6 1013.4
С 4 10 км 9/9 1050 м
[Cb calv]
+15.7 +13.3 86 +15 +15 1016.4 1013.1 +20.6
Ю 1 10 км 5/5 1200 м
[Sc]
+13.5 +12.2 92 +14 +14 1016.7 1013.5
СВ 1 10 км 8/8 1200 м
[Sc]
+12.0 +11.2 95 +12 +12 1016.7 1013.5
ЮЗ 1 10 км 8/8 1200 м
[Sc]
+12.9 +11.5 91 +13 +13 1016.5 1013.3
С 2 10 км 9/9 1050 м
[Cb calv]
+11.7 +10.6 93 +10 +10 1017.0 1013.8 +7.9 666
С 2 8000 м дымка 4/4 1200 м
[Sc]
+13.6 +11.8 89 +13 +15 1018.0 1014.7
СЗ 6 10 км ясно +19.8 +12.7 64 +21 +24 комфорт 1017.7 1014.5
СЗ 8 10 км 1/1 1200 м
[Cu hum]
+20.9 +8.9 46 +22 +22 комфорт 1015.9 1012.7
С 5 10 км ясно +15.8 +10.8 72 +15 +15 1016.1 1012.9 +21.5 666
СЗ 2 10 км ясно +12.2 +9.0 81 +11 +11 1016.5 1013.3
С 5 10 км ясно +11.2 +8.9 86 +8 +8 1017.2 1014.0
С 3 7000 м дымка ясно +9.3 +8.1 92 +7 +7 1017.3 1014.1
Местоположение метеостанции Омидийе (Иран): широта 30.77 долгота 49.67 высота над уровнем моря 27 м.
В архиве по умолчанию представлена погода в Омидийе за последнюю неделю. Архивные данные за месяц целиком и за предыдущие месяцы, начиная с января 2011 года, Вы можете получить, выбрав интересующий диапазон дат из раскрывающегося списка и нажав кнопку "Найти!".
*Определитесь, кто Вы:
Внимание! Время в таблицах - всемирное. Для получения местного времени необходимо прибавить поправку, которая равна 3.5 ч.
Смотрите также архив погоды в соседних городах и на ближайших метеорологических станциях:
Партнеры нашего сайта:      
Пояснения к столбцам:
  • Ветер - указаны скорость ветра в м/с - средняя за 10 мин, порывы в срок и между сроками (в фигурных скобках) и направление, откуда дует ветер: С - северный,
  • СВ - северо-восточный, В - восточный, ЮВ - юго-восточный, Ю - южный, ЮЗ - юго-западный, З - западный, СЗ - северо-западный.
  • Видимость - горизонтальная дальность видимости в метрах или километрах. При видимости от 1 до 10 км при отсутствии осадков обычно наблюдается дымка, при ухудшении видимости до 1 км и менее - туман. В сухую погоду видимость может ухудшаться дымом, пылью или мглою.
  • Явления - указаны атмосферные явления, наблюдавшиеся в срок или в последний час перед сроком; фигурными скобками обозначены явления, наблюдавшиеся между сроками (за 1-3 часа до срока); квадратными скобками обозначены град или гололедные отложения с указанием их диаметра в мм.
  • Облачность - указаны через наклонную черту общая и нижняя облачность в баллах и высота нижней границы облаков в метрах; квадратными скобками обозначены формы облаков: Ci - перистые, Cs - перисто-слоистые, Cc - перисто-кучевые, Ac - высококучевые, As - высокослоистые, Sc - слоисто-кучевые, Ns - слоисто-дождевые, Cu - кучевые, Cb - кучево-дождевые. Подробнее классификацию облаков см. в Атласе облаков (PDF).
  • T - Температура воздуха - температура, измеренная на высоте 2 м над землей.
  • Td - Температура точки росы - температура, при понижении до которой содержащийся в воздухе водяной пар достигнет насыщения.
  • f - Относительная влажность воздуха - влажноcть воздуха, измеренная на высоте 2 м над землей.
  • Te - Эффективная температура - температура, которую ощущает одетый по сезону человек в тени. Характеристика душности погоды. При расчете учитывается влияние влажности воздуха и скорости ветра на теплоощущения человека.
  • Tes - Эффективная температура на солнце - температура, которую ощущает человек, с поправкой на солнечный нагрев. Характеристика знойности погоды. Зависит от высоты солнца над горизонтом, облачности и скорости ветра. Ночью, в пасмурную погоду, а также при ветре 12 м/с и более поправка равна нулю.
  • P - Атмосферное давление - приведенное к уровню моря атмосферное давление.
  • Po - Атмосферное давление - измеренное на уровне метеостанции атмосферное давление.
  • Tmin - Минимальная температура - минимум температуры воздуха на высоте 2 м над землей.
  • Tmax - Максимальная температура - максимум температуры воздуха на высоте 2 м над землей.
  • R - Количество осадков - Количество выпавших осадков за период времени, мм. При наведении курсора мыши на число - период времени, за который выпало указанное количество осадков.
  • R24 - Количество осадков - Количество выпавших осадков за 24 часа, мм.
  • S - Снежный покров - Высота снежного покрова, см. При наведении курсора мыши на число - состояние снежного покрова и степень покрытия местности в баллах.